Showing default

CLUSTER II-FM6, 26411

Orbit data source: Space-Track

CLUSTER II-FM6, 26411 is a payload satellite owned by ESA (ESA) in HEO that was launched on Sun, 16 Jul 2000 UTC via a SOYUZ-U-PVB launch vehicle from the Tyuratam Missile And Space Complex (TTMTR). Payloads include a variety of satellites, spacecraft, and rockets equipped with specific instruments for various scientific and technological missions. These include communications satellites like Starlink; space stations such as the ISS; scientific satellites like the Hubble; Earth observation satellites from companies like Planet Labs, Umbra, and HawkEye 360; GPS; miniature CubeSats for education and research; and military/defense satellites.

Loading next visibility...
CLUSTER II-FM6 details
Identifier
26411, 2000-041B
Orbit
HEO
Last TLE update4 months ago
Origin
Flag of ESAESA (ESA)
ManufacturerAstrium-Frh.
MissionDecayed Civil Science
Bus & MotorCLUSTER, S400
Mass1,186 kg wet, 550 kg dry
Launch date (UTC)
2000-07-16 (25 years ago)
Launch vehicle
SOYUZ-U-PVB
Launch site
Tyuratam Missile And Space Complex (TTMTR)
Object type
Payload
Rocket body
Debris
Shape & HBRCyl + 4 Ant, 100 m
Radar Cross Section31.548 m², Large (>1 m²)

Expand to show TLE details & history

TLE from 4 months ago
0 CLUSTER II-FM6
1 26411U 00041B   24252.84968039  .00055456 -32455-3  00000+0 0  9998
2 26411 150.0716  39.2522 9137804 255.7707   0.1507  0.44420051 28489
Epoch: 2024-09-08T20:23Z
Definitive object data (Epoch: 2024-09-08T20:23:32.385Z)
Latitude-28.16673°
Longitude-142.17872°
Altitude73.096 km
Speed10.87 km/s
True Right ascension10h 08m 22s
True Declination-28° 00' 31"
Sunlit
Object was in daylight at TLE epoch
Visualization TLE readout
Latitude28.26588°
Longitude43.87239°
Altitude85,050.476 km
Speed1.796 km/s
Apparent Right ascension22h 39m 24s
Apparent Declination24° 49' 21"
Sunlit
Object is in daylight
Visualization observer readout
Local Sidereal Time12:36:33
Azimuth28.148° NE
Elevation-19.74°
Doppler factor1
Orbital elements
Apogee altitude132,491.982 km
Perigee altitude-121.763 km
Semi-major axis72,563.247 km
Eccentricity0.9137804
Inclination150.0716°
RAAN39.2522°
Arg. of periapsis255.7707°
True anomaly8.20778°
Mean anomaly0.1507°
Eccentric anomaly1.74499°
Mean motion0.11104 °/min
BSTARUnknown
Orbital period3242.16 mins
Loading maneuver chart data...
Loading historical data...
Loading historical data...
Loading historical data...
Loading historical data...
Loading historical data...
Loading historical data...
Loading historical data...
Other satellites on launch #41 in the year 2000 (2000-07-16 UTC)

CLUSTER II-FM6 Visibility forecast

Observer location: undefined°, undefined

Span
Click to sort rows by Start time (UTC) header in descending order
Start Az.
Max El. time (UTC)
Max El. Az.
Max El.
End time (UTC)
End Az.
724 mins2025-01-15 15:09:16.625Z64.196° ENE2025-01-15 21:08:16.625Z181.37° SSW44.351°2025-01-16 03:13:16.625Z296.044° NW
|